Regional Weather Roundup
Issued by NWS Albany, NY

Home | Current Version | Previous Version | Text Only | Print | Product List | Glossary On
Versions: 1 2 3 4 5 6 7 8 9 10 11 12 13 14 15 16 17 18 19 20 21 22 23 24 25 26 27 28 29 30 31 32 33 34 35 36 37 38 39 40 41 42 43 44 45 46 47 48 49 50
000
ASUS41 KALY 191210
RWRALY

NEW YORK STATE HOURLY WEATHER ROUNDUP
NATIONAL WEATHER SERVICE ALBANY NY
700 AM EST THU JAN 19 2017

NOTE: "FAIR" INDICATES FEW OR NO CLOUDS BELOW 12,000 FEET WITH NO
SIGNIFICANT WEATHER AND/OR NO OBSTRUCTIONS TO VISIBILITY.

NYZ032-033-038>043-046>054-057>066-NYZ062>081-082-084-191300-
EAST


CITY           SKY/WX    TMP DP  RH WIND       PRES   REMARKS
ALBANY         CLOUDY    36  33  89 SW6       30.02S WCI  31
GLENS FALLS    CLOUDY    35  31  85 CALM      29.98S FOG
POUGHKEEPSIE   CLOUDY    32  32 100 CALM      30.01S FOG
NEWBURGH       PTCLDY    36  36 100 CALM      30.01S
MONTGOMERY     MOCLDY    35  33  92 W8        29.99F WCI  29
WHITE PLAINS   PTCLDY    34  32  92 CALM      30.00S
ISLIP          PTCLDY    33  32  96 CALM      30.02R FOG
NEW YORK CITY  CLOUDY    43  36  76 NW6       30.03R
CENTRAL PARK   CLOUDY    40  36  86 VRB3      30.04S
$$

NYZ005>009-017-018-044>046-055-056-191300-
CENTRAL


CITY           SKY/WX    TMP DP  RH WIND       PRES   REMARKS
FULTON         CLOUDY    37  34  89 W8        30.03R WCI  31
SYRACUSE       CLOUDY    37  34  89 W9        30.03R WCI  30
ROME           CLOUDY    36  36 100 W7        30.02F FOG     WCI  30
ELMIRA         CLOUDY    37  32  82 CALM      30.03R
BINGHAMTON     CLOUDY    33  32  96 W7        29.99R WCI  27
MONTICELLO     CLOUDY    34  34 100 W5        30.00R WCI  30
$$

NYZ026>034-041>043-087-191300-
NORTH


CITY           SKY/WX    TMP DP  RH WIND       PRES   REMARKS
WATERTOWN      PTCLDY    34  34 100 SW6       30.01S WCI  29
FORT DRUM      NOT AVBL
OGDENSBURG     CLOUDY    34  34  99 SW5       29.99S FOG     WCI  30
MASSENA        CLOUDY    34  34 100 SW8       29.99S FOG     WCI  27
SARANAC LAKE   CLOUDY    33  30  88 W8        29.91R WCI  26
PLATTSBURGH    CLOUDY    34  32  92 CALM      29.96S
$$

NYZ001>004-010>016-019>021-085-191300-
WEST


CITY           SKY/WX    TMP DP  RH WIND       PRES   REMARKS
NIAGARA FALLS  CLOUDY    36  31  82 W12       30.05S WCI  28
BUFFALO        DRIZZLE   34  32  92 W15G22    30.05R WCI  24
DUNKIRK        CLOUDY    35  35 100 SW9       30.07R FOG     WCI  28
JAMESTOWN      CLOUDY    34  30  86 SW10      30.02R WCI  26
WELLSVILLE     CLOUDY    35  31  85 W8        30.02R WCI  29
ROCHESTER      FLURRIES  36  33  89 W16       30.06R WCI  26
PENN YAN       CLOUDY    38  30  73 W5        30.03R WCI  34
$$

             KEY
       WCI = WIND CHILL INDEX
       VSB = VISIBILITY
       HX  = HEAT INDEX
$$



USA.gov is the U.S. government's official web portal to all federal, state and local government web resources and services.